Погода в Зеленом Гае

Россия / Тамбовская область     52°57′27″N   40°23′30″E
темп.,
°C
ветер,
м/с
пор.,
м/с
влажн.,
%
обл.,
%
осадки,
мм/ч
давл.,
гПа
погр.,
м
11 апреля, вс
вс1100:00+4с33654 0.0 102739
03:00+3с35715 0.0 102781
06:00+2ссв35706 0.0 102983
09:00+6ссв475699 0.0 1030325
12:00+10ссв5640100 0.0 1029868
15:00+11св6838100 0.0 1029899
18:00+10св59478 0.0 1030522
21:00+7св51261100 0.0 1030307
12 апреля, пн
пн1200:00+6св51269100 0.0 1030345
03:00+5св41183100 0.0 1030307
06:00+4св51093100 0.0 1030306
09:00+7всв5887100 0.0 1030382
12:00+13в6868100 0.0 1029555
15:00+18в675115 0.0 1027961
18:00+17всв5105618 0.0 1026273
21:00+13юв4126599 0.0 1027210
13 апреля, вт
вт1300:00+11юв4117155 0.0 1027201
03:00+10юв497460 0.0 1028140
06:00+8юв4107194 0.0 1028172
09:00+13юв5950100 0.0 1028350
12:00+18юв683657 0.0 1027989
15:00+20ююв67295 0.0 10261863
18:00+18ююв4737100 0.0 1025202
21:00+14юв411515 0.0 1025206
14 апреля, ср
ср1400:00+12юв412585 0.0 1025216
03:00+10юв37636 0.0 1025119
06:00+8вюв386716 0.0 1024137
09:00+14юв594849 0.0 1024375
12:00+18юв6833100 0.0 10221036
15:00+19юв6830100 0.0 10211642
18:00+18юв483769 0.0 1020296
21:00+13вюв4955100 0.0 1020149
15 апреля, чт
чт1500:00+11юв3860100 0.0 1019144
03:00+10юв3664100 0.0 101992
06:00+9юв366850 0.0 1019106
09:00+14юв3550100 0.0 1018324
12:00+18юв3436100 0.0 1017853
15:00+20юв3431100 0.0 10151955
18:00+18вюв1137100 0.0 101511
21:00+15в2349100 0.0 101432